[Iaude] MPEC J233: 2024 JE8 [a=1.85,e=0.61,i=6.2,H=22.8]

mpec at cfa.harvard.edu mpec at cfa.harvard.edu
Thu May 9 17:28:11 EDT 2024


M.P.E.C. 2024-J233                                  Issued 2024 May 9, 21:26 UT

     The Minor Planet Electronic Circulars contain information on unusual
         minor planets, routine data on comets and natural satellites,
         and occasional editorial announcements.  They are published
    on behalf of Division F of the International Astronomical Union by the
          Minor Planet Center, Smithsonian Astrophysical Observatory,
                          Cambridge, MA 02138, U.S.A.
			  
             Prepared using the Tamkin Foundation Computer Network

                              MPC at CFA.HARVARD.EDU
            URL https://www.minorplanetcenter.net/    ISSN 1523-6714

                                    2024 JE8                                    


Observations:
     K24J08E 1C2024 05 04.38734 16 04 57.58 +04 27 40.2          21.7 GVEJ233G96
     K24J08E 1C2024 05 04.39249 16 04 57.58 +04 27 58.4          21.5 GVEJ233G96
     K24J08E* C2024 05 08.54644216 07 59.453+08 54 22.75         21.07wXEJ233F51
     K24J08E  C2024 05 08.55882216 07 59.881+08 55 17.22         21.29wXEJ233F51
     K24J08E  C2024 05 08.57117716 08 00.305+08 56 11.32         21.39wXEJ233F51
     K24J08E 7C2024 05 09.14176116 08 27.740+09 38 42.98         19.9 GVEJ233Z84
     K24J08E 7C2024 05 09.14755116 08 27.908+09 39 08.97         20.3 GVEJ233Z84
     K24J08E KC2024 05 09.26991 16 08 35.602+09 48 32.15         21.2 GVEJ233H36
     K24J08E KC2024 05 09.28531 16 08 36.089+09 49 42.49         21.3 GVEJ233H36
     K24J08E KC2024 05 09.30146 16 08 36.727+09 50 58.52         20.8 GVEJ233H36
     K24J08E  C2024 05 09.52084216 08 46.700+10 08 11.88         21.02GVEJ233F51
     K24J08E  C2024 05 09.52166916 08 46.731+10 08 15.81         21.12GVEJ233F51

Observer details:
F51 Pan-STARRS 1, Haleakala.  Observers J. Herman, T. Lowe, P. Minguez, A.
    Schultz, I. Smith.  Measurers K. Chambers, T. de Boer, J. Fairlamb, H.
    Gao, M. Huber, C.-C. Lin, E. Magnier, Y. Ramanjooloo, R. Wainscoat, R.
    Weryk.  1.8-m Ritchey-Chretien + CCD.
G96 Mt. Lemmon Survey.  Observer H. Groeller.  Measurers B. Gray, D. Rankin,
    F. C. Shelly.  1.5-m reflector + 10K CCD.
H36 Sandlot Observatory, Scranton.  Observer G. Hug.  0.56-m f/4.8 .56 meter
    Reflector + CCD.
Z84 Calar Alto-Schmidt.  Observers F. Ocana, R. Kresken, M. Micheli, L.
    Conversi.  Measurers F. Ocana, M. Micheli.  0.8-m f/3 Schmidt + CCD.

Orbital elements:
2024 JE8                                                 Earth MOID = 0.0785 AU
Epoch 2024 Mar. 31.0 TT = JDT 2460400.5                 MPC                     
M 317.93477              (2000.0)            P               Q                  
n   0.39167653     Peri.  155.11125     +0.80715177     +0.58996401             
a   1.8500538      Node   168.66063     -0.55806209     +0.77422319             
e   0.6075875      Incl.    6.18321     -0.19254280     +0.22917441             
P   2.52           H   22.81          G   0.15           U   9                  
Residuals in seconds of arc
240504 G96 (2.4+  0.9-)   240508 F51  0.1+  0.0     240509 H36  0.5-  0.4-
240504 G96  0.0   0.0     240509 Z84  0.1+  0.2+    240509 H36  0.3+  0.8+
240508 F51  0.0   0.1-    240509 Z84  0.7-  0.2-    240509 F51  0.2+  0.1-
240508 F51  0.1+  0.1+    240509 H36  0.5+  0.5+    240509 F51  0.2+  0.1-

Ephemeris:
2024 JE8                 a,e,i = 1.85, 0.61, 6                   q = 0.7260
Date    TT    R. A. (2000) Decl.     Delta      r    Elong.  Phase     V
2024 04 09    15 46 38.9 -08 24 41   0.5744  1.4946   141.5    24.6    23.6
...
2024 04 24    15 57 58.3 -02 49 37   0.3866  1.3562   150.8    21.2    22.4
...
2024 05 02    16 03 20.1 +02 23 27   0.2992  1.2802   152.3    21.5    21.8
...
2024 05 08    16 07 35.0 +08 15 10   0.2400  1.2225   149.7    24.6    21.3
2024 05 09    16 08 22.0 +09 28 12   0.2307  1.2129   148.9    25.5    21.2
2024 05 10    16 09 11.3 +10 46 25   0.2216  1.2032   147.9    26.5    21.1
...
2024 05 16    16 15 27.2 +20 57 36   0.1714  1.1452   138.6    35.8    20.7
...
2024 05 24    16 34 25.7 +44 42 58   0.1216  1.0682   114.2    59.9    20.5
...
2024 06 08    02 52 38.4 +66 15 37   0.1370  0.9294    48.2   125.4    23.6

A. U. Tomatic                (C) Copyright 2024 MPC           M.P.E.C. 2024-J233





More information about the Iaude mailing list